Hourly Data Report for July 23, 2021

SWAN RIVER RCS
MANITOBA
Current Station Operator: ECCC - MSC

52°06'53.900" N
101°13'58.500" W
334.80 m
504K80K
71443
WEQ

Download Data

Hourly Data (July 2021)
Hourly Data Report for July 23, 2021
TIME
LST
Temp Definition
°C
Dew Point Definition
°C
Rel Hum Definition
%
Precip. Amount Definition
mm

Wind Dir Definition
10's deg

Wind Spd Definition
km/h
Visibility Definition
km
Stn Press Definition
kPa
Hmdx Definition


Wind Chill Definition


Weather Definition


00:00 18.9 17.3 91 7.3 7 7   96.93     LegendNANA
01:00 19.5 17.0 85 0.0 17 10   96.91     LegendNANA
02:00 19.9 14.1 69 0.0 20 14   96.84     LegendNANA
03:00 19.8 14.2 70 0.0 23 16   96.86     LegendNANA
04:00 17.0 14.7 86 0.0 22 10   96.80     LegendNANA
05:00 16.8 14.8 88 0.0 23 13   96.79     LegendNANA
06:00 16.5 12.7 78 0.0 27 19   96.87     LegendNANA
07:00 16.5 12.1 75 0.0 20 15   96.96     LegendNANA
08:00 18.0 10.6 62 0.0 23 15   97.05     LegendNANA
09:00 19.1 10.5 57 0.0 23 16   97.10     LegendNANA
10:00 20.6 8.6 46 0.0 24 17   97.12     LegendNANA
11:00 21.9 10.5 48 0.0 23 17   97.13     LegendNANA
12:00 23.4 9.9 42 0.0 24 19   97.11 25   LegendNANA
13:00 25.2 5.7 29 0.0 25 21   97.04 25   LegendNANA
14:00 25.8 5.6 27 0.0 24 27   96.98 25   LegendNANA
15:00 26.0 5.9 28 0.0 25 28   96.92 26   LegendNANA
16:00 26.6 3.9 23 0.0 26 32   96.87 26   LegendNANA
17:00 26.3 4.2 24 0.0 24 27   96.81 25   LegendNANA
18:00 25.9 4.5 25 0.0 24 26   96.75 25   LegendNANA
19:00 24.8 5.9 30 0.0 24 21   96.75     LegendNANA
20:00 23.0 6.7 35 0.0 23 14   96.78     LegendNANA
21:00 17.8 8.7 55 0.0 22 11   96.80     LegendNANA
22:00 16.8 8.4 58 0.0 21 13   96.83     LegendNANA
23:00 16.8 7.9 56 0.0 23 14   96.84     LegendNANA

Notes on Data Quality.

Legend

  • E = Estimated
  • M = Missing
  • NA = Not Available*
  • [empty] = Indicates an unobserved value
Date modified: